304P/Ory (2020)

Japanese version
Home page
Updated on July 7, 2020

---------------------------------------------------------------------

* Profile

* Pictures

* Orbital Elements

Epoch 2020 Aug. 19.0 TT = JDT 2459080.5
T 2020 Aug. 12.40141 TT                                 Rudenko
q   1.2586339            (2000.0)            P               Q
n   0.17630487     Peri.  335.22602     +0.82707598     -0.56073834
a   3.1498740      Node    58.93656     +0.52299216     +0.74229684
e   0.6004177      Incl.    2.60680     +0.20597214     +0.36683500
P   5.59
From 1171 observations 2008 Aug. 27-2015 Jan. 28, mean residual 0".5.
     Nongravitational parameters A1 = +0.02, A2 = +0.0304.

* Finding Charts

* Magnitudes Graph

        m1 = 12.5 + 5 log d + 30.0 log r(t - 25)

---------------------------------------------------------------------

The orbital elements are published on M.P.E.C. 2020-N08.
The charts are made with StellaNavigator Ver.10 (AstroArts).
The magnitudes graphs are made with Comet for Windows.

---------------------------------------------------------------------

Copyright(C) Seiichi Yoshida (comet@aerith.net). All rights reserved.